TimeEST,TemperatureF,Dew PointF,Humidity,Sea Level PressureIn,VisibilityMPH,Wind Direction,Wind SpeedMPH,Gust SpeedMPH,PrecipitationIn,Events,Conditions,WindDirDegrees,DateUTC
12:15 AM,53.8,52.3,95,30.04,10.0,Calm,Calm,-,N/A,,Overcast,0,2012-12-08 05:15:00
12:35 AM,53.8,52.7,96,30.03,10.0,Calm,Calm,-,N/A,,Overcast,0,2012-12-08 05:35:00
12:55 AM,53.8,52.7,96,30.03,10.0,Calm,Calm,-,N/A,,Overcast,0,2012-12-08 05:55:00
1:15 AM,53.6,52.3,95,30.03,10.0,Calm,Calm,-,N/A,,Overcast,0,2012-12-08 06:15:00
1:35 AM,53.8,52.7,96,30.03,10.0,Calm,Calm,-,N/A,,Overcast,0,2012-12-08 06:35:00
1:55 AM,53.6,52.5,96,30.02,10.0,Calm,Calm,-,N/A,,Overcast,0,2012-12-08 06:55:00
2:15 AM,53.6,52.7,97,30.03,10.0,Calm,Calm,-,N/A,,Overcast,0,2012-12-08 07:15:00
2:35 AM,53.8,52.7,96,30.02,10.0,Calm,Calm,-,N/A,,Overcast,0,2012-12-08 07:35:00
2:55 AM,53.8,52.5,95,30.02,10.0,Calm,Calm,-,N/A,,Overcast,0,2012-12-08 07:55:00
3:15 AM,53.6,52.7,97,30.03,10.0,Calm,Calm,-,N/A,,Overcast,0,2012-12-08 08:15:00
3:55 AM,54.0,52.9,96,30.01,10.0,Calm,Calm,-,N/A,,Overcast,0,2012-12-08 08:55:00
4:15 AM,54.1,52.7,95,30.01,10.0,Calm,Calm,-,N/A,,Overcast,0,2012-12-08 09:15:00
4:35 AM,53.8,52.7,96,30.01,10.0,Calm,Calm,-,N/A,,Overcast,0,2012-12-08 09:35:00
4:55 AM,53.8,52.9,97,30.01,10.0,Calm,Calm,-,N/A,,Overcast,0,2012-12-08 09:55:00
5:15 AM,53.6,52.7,97,30.01,10.0,Calm,Calm,-,N/A,,Overcast,0,2012-12-08 10:15:00
5:35 AM,53.8,52.9,97,30.02,10.0,Calm,Calm,-,N/A,,Overcast,0,2012-12-08 10:35:00
5:55 AM,53.6,52.9,97,30.03,10.0,Calm,Calm,-,N/A,,Overcast,0,2012-12-08 10:55:00
6:15 AM,53.6,52.9,97,30.03,10.0,Calm,Calm,-,N/A,,Overcast,0,2012-12-08 11:15:00
6:35 AM,53.6,52.9,97,30.04,10.0,Calm,Calm,-,N/A,,Overcast,0,2012-12-08 11:35:00
6:55 AM,54.0,53.2,97,30.04,10.0,Calm,Calm,-,N/A,,Overcast,0,2012-12-08 11:55:00
7:15 AM,53.6,52.9,97,30.05,10.0,Calm,Calm,-,N/A,,Overcast,0,2012-12-08 12:15:00
7:35 AM,53.8,53.2,98,30.05,10.0,Calm,Calm,-,N/A,,Overcast,0,2012-12-08 12:35:00
7:55 AM,53.8,53.2,98,30.05,10.0,Calm,Calm,-,N/A,,Overcast,0,2012-12-08 12:55:00
8:15 AM,54.1,53.6,98,30.05,10.0,Calm,Calm,-,N/A,,Overcast,0,2012-12-08 13:15:00
8:35 AM,54.5,53.6,97,30.06,10.0,Calm,Calm,-,N/A,,Overcast,0,2012-12-08 13:35:00
8:55 AM,55.2,53.6,94,30.06,10.0,Calm,Calm,-,N/A,,Overcast,0,2012-12-08 13:55:00
9:15 AM,55.6,53.8,94,30.06,10.0,Calm,Calm,-,N/A,,Overcast,0,2012-12-08 14:15:00
9:35 AM,56.8,54.1,91,30.06,10.0,Calm,Calm,-,N/A,,Overcast,0,2012-12-08 14:35:00
9:55 AM,56.7,54.0,91,30.06,10.0,Calm,Calm,-,N/A,,Overcast,0,2012-12-08 14:55:00
10:15 AM,57.2,54.1,89,30.06,10.0,Calm,Calm,-,N/A,,Overcast,0,2012-12-08 15:15:00
10:35 AM,58.1,54.0,86,30.06,10.0,Calm,Calm,-,N/A,,Overcast,0,2012-12-08 15:35:00
10:55 AM,60.4,53.6,78,30.06,10.0,Calm,Calm,-,N/A,,Overcast,0,2012-12-08 15:55:00
11:15 AM,61.5,54.7,78,30.06,10.0,Calm,Calm,-,N/A,,Overcast,0,2012-12-08 16:15:00
11:35 AM,64.8,57.2,76,30.05,10.0,Calm,Calm,-,N/A,,Overcast,0,2012-12-08 16:35:00
11:55 AM,62.6,55.0,76,30.04,10.0,WNW,3.5,-,N/A,,Overcast,290,2012-12-08 16:55:00
12:15 PM,63.1,55.2,75,30.03,10.0,West,3.5,-,N/A,,Overcast,270,2012-12-08 17:15:00
12:35 PM,63.9,55.6,74,30.03,10.0,West,4.6,-,N/A,,Overcast,260,2012-12-08 17:35:00
12:55 PM,63.9,55.6,74,30.03,10.0,SW,4.6,-,N/A,,Overcast,220,2012-12-08 17:55:00
1:15 PM,64.4,55.9,74,30.02,10.0,WSW,6.9,-,N/A,,Overcast,250,2012-12-08 18:15:00
1:35 PM,64.8,55.9,73,30.01,10.0,WSW,3.5,-,N/A,,Overcast,250,2012-12-08 18:35:00
1:55 PM,64.8,55.9,73,30.01,10.0,WSW,4.6,-,N/A,,Mostly Cloudy,250,2012-12-08 18:55:00
2:15 PM,64.8,55.9,73,30.01,10.0,Calm,Calm,-,N/A,,Overcast,0,2012-12-08 19:15:00
2:35 PM,65.1,56.1,73,30.00,10.0,Calm,Calm,-,N/A,,Overcast,0,2012-12-08 19:35:00
2:55 PM,65.3,56.3,73,30.00,10.0,SW,4.6,-,N/A,,Overcast,230,2012-12-08 19:55:00
3:15 PM,65.5,56.5,73,30.00,10.0,West,3.5,-,N/A,,Overcast,260,2012-12-08 20:15:00
3:35 PM,65.5,56.8,74,30.00,10.0,West,4.6,-,N/A,,Overcast,260,2012-12-08 20:35:00
3:55 PM,65.3,56.7,74,30.00,10.0,WNW,4.6,-,N/A,,Overcast,290,2012-12-08 20:55:00
4:15 PM,64.8,56.8,75,30.00,10.0,West,5.8,-,N/A,,Overcast,280,2012-12-08 21:15:00
4:35 PM,64.9,56.7,74,30.00,10.0,Calm,Calm,-,N/A,,Overcast,0,2012-12-08 21:35:00
4:55 PM,64.0,56.3,76,30.00,10.0,Calm,Calm,-,N/A,,Scattered Clouds,0,2012-12-08 21:55:00
5:15 PM,62.2,56.3,81,30.00,10.0,Calm,Calm,-,N/A,,Scattered Clouds,0,2012-12-08 22:15:00
5:35 PM,59.2,55.2,87,30.01,10.0,Calm,Calm,-,N/A,,Mostly Cloudy,0,2012-12-08 22:35:00
6:15 PM,55.8,53.4,92,30.03,10.0,Calm,Calm,-,N/A,,Scattered Clouds,0,2012-12-08 23:15:00
6:35 PM,55.9,54.1,94,30.03,10.0,Calm,Calm,-,N/A,,Overcast,0,2012-12-08 23:35:00
6:55 PM,55.8,53.8,93,30.03,10.0,Calm,Calm,-,N/A,,Mostly Cloudy,0,2012-12-08 23:55:00
7:15 PM,55.6,53.8,94,30.03,10.0,Calm,Calm,-,N/A,,Overcast,0,2012-12-09 00:15:00
7:35 PM,57.2,54.7,91,30.04,10.0,Calm,Calm,-,N/A,,Overcast,0,2012-12-09 00:35:00
7:55 PM,56.5,54.3,92,30.04,10.0,Calm,Calm,-,N/A,,Overcast,0,2012-12-09 00:55:00
8:15 PM,56.7,54.9,94,30.05,10.0,Calm,Calm,-,N/A,,Overcast,0,2012-12-09 01:15:00
8:35 PM,57.0,55.2,94,30.05,10.0,Calm,Calm,-,N/A,,Overcast,0,2012-12-09 01:35:00
8:55 PM,57.2,55.0,92,30.05,10.0,Calm,Calm,-,N/A,,Overcast,0,2012-12-09 01:55:00
9:15 PM,57.4,55.2,92,30.05,10.0,Calm,Calm,-,N/A,,Overcast,0,2012-12-09 02:15:00
9:35 PM,57.2,55.4,94,30.05,10.0,Calm,Calm,-,N/A,,Overcast,0,2012-12-09 02:35:00
9:55 PM,57.6,55.4,92,30.05,10.0,Calm,Calm,-,N/A,,Overcast,0,2012-12-09 02:55:00
10:15 PM,57.4,55.4,93,30.05,10.0,Calm,Calm,-,N/A,,Overcast,0,2012-12-09 03:15:00
10:35 PM,57.2,55.4,94,30.06,10.0,Calm,Calm,-,N/A,,Overcast,0,2012-12-09 03:35:00
10:55 PM,57.2,55.6,94,30.06,10.0,Calm,Calm,-,N/A,,Overcast,0,2012-12-09 03:55:00
11:15 PM,57.2,55.6,94,30.06,10.0,Calm,Calm,-,N/A,,Overcast,0,2012-12-09 04:15:00
11:35 PM,57.2,55.9,96,30.06,10.0,Calm,Calm,-,N/A,,Overcast,0,2012-12-09 04:35:00
11:55 PM,56.8,56.1,97,30.06,5.0,Calm,Calm,-,N/A,,Overcast,0,2012-12-09 04:55:00